COSMOS 1275 DEB, 12660

Orbit data source: Space-Track

COSMOS 1275 DEB, 12660 is space debris in LEO originally from a launch on Thu, 04 Jun 1981 UTC launched from the Plesetsk Missile And Space Complex (PKMTR). Debris objects in space refer to the collection of defunct objects orbiting the Earth. Examples of debris include non-operational satellites, rocket bodies, and fragments generated from explosions, collisions, or faulty payload assembly.

Loading next visibility...
Identifier
12660, 1981-053Q
Orbit
LEO
Country
Flag of CISCIS
Related business
Manufacturer
Unknown
Mission
Spacecraft
Bus & Motor
Unknown
Mass
Unknown
Launch date (UTC)
1981-06-04 (45 years ago)
Launch vehicle
Unknown
Launch site
Plesetsk Missile And Space Complex (PKMTR)
Object type
Payload
Rocket body
Debris
Shape & HBR
Unknown shape, 0.1 m
Radar Cross Section
Medium (>0.1 m² and <1 m²)

Expand to show TLE details & history
Last TLE update: 2 days ago

TLE from 2 days ago
0 COSMOS 1275 DEB
1 12660U 81053Q   26171.27790699  .00000658  00000-0  73667-3 0  9999
2 12660  82.8508  98.7073 0131205 146.6640 345.2541 13.65970306222461
Epoch: 2026-06-20T06:40Z
TLE epoch observation values (Epoch: 2026-06-20T06:40:11.163Z)
Latitude
48.06685°
Longitude
-97.81811°
Altitude
927.836 km
Speed
7.439 km/s
True Right ascension
18h 02m 53s
True Declination
47° 53' 59"
Sunlit
Object was in daylight at epoch
Visualization orbit readout
Latitude
Unknown
Longitude
Unknown
Altitude
Unknown
Speed
Unknown
Apparent Right ascension
Unknown
Apparent Declination
Unknown
Sunlit
N/A
Visualization observer readout
Local Sidereal Time
17:36:17
Azimuth
Unknown
Elevation
Unknown
Doppler factor
Unknown
Orbital elements
Apogee altitude
1,108.19 km
Perigee altitude
914.286 km
Semi-major axis
7,389.375 km
Eccentricity
0.01312
Inclination
82.8508°
RAAN
98.7073°
Arg. of periapsis
146.664°
True anomaly
344.86525°
Mean anomaly
345.2541°
Eccentric anomaly
345.0603°
Mean motion
3.41689 °/min
Orbital period
105.36 mins
BSTAR
0.00073667
Loading maneuver chart data...
Computing Atmospheric mass density...
Loading historical data...
Loading historical data...
Loading historical data...
Loading historical data...
Loading historical data...
Loading historical data...
Loading historical data...

Documentation

Showing up to 5 results
|